Regional Weather Roundup
Issued by NWS Newport/Morehead, NC

Current Version | Previous Version | Text Only | Print | Product List | Glossary Off
Versions: 1 2 3 4 5 6 7 8 9 10 11 12 13 14 15 16 17 18 19 20 21 22 23 24 25 26 27 28 29 30 31 32 33 34 35 36 37 38 39 40 41 42 43 44 45 46 47 48 49 50
000 ASUS42 KMHX 161710 RWRMHX WEATHER ROUNDUP FOR EASTERN NORTH CAROLINA NATIONAL WEATHER SERVICE NEWPORT/MOREHEAD CITY NC 100 PM EDT TUE SEP 16 2014 NOTE: "FAIR" INDICATES FEW OR NO CLOUDS BELOW 12,000 FEET WITH NO SIGNIFICANT WEATHER AND/OR OBSTRUCTIONS TO VISIBILITY NCZ015>017-031-032-045>047-102-103-161800- NORTH COAST CITY SKY/WX TMP DP RH WIND PRES REMARKS EDENTON MOSUNNY 80 67 63 NW3 30.00F ELIZABETH CITY MOSUNNY 80 65 59 CALM 30.00F KITTY HAWK MOSUNNY 79 68 68 W8 29.99F MANTEO MOSUNNY 78 67 69 W6 30.00F $$ NCZ045>047-081-094-103-104-161800- CENTRAL COAST CITY SKY/WX TMP DP RH WIND PRES REMARKS FRISCO MOSUNNY 78 69 73 VRB6 30.01F SWANQUARTER N/A 79 N/A N/A SW8 29.97S $$ NCZ095-097-098-100-101-161800- SOUTHERN COAST CITY SKY/WX TMP DP RH WIND PRES REMARKS BEAUFORT PTSUNNY 80 71 74 VRB6 30.01F CEDAR ISLAND N/A 79 N/A N/A N3 30.06S JACKSONVILLE MOSUNNY 81 72 74 VRB5 30.00F NEWPORT NOT AVBL PINEY ISLAND PTSUNNY 81 69 67 CALM 30.00F WILMINGTON PTSUNNY 82 72 71 NE6 30.00F $$ NCZ011>013-027>030-043-044-078>080-089-090>093-098-161800- COASTAL PLAIN CITY SKY/WX TMP DP RH WIND PRES REMARKS AHOSKIE SUNNY 78 62 57 N6 30.01F CLINTON MOSUNNY 80 69 70 CALM 30.03F ELIZABETHTOWN PTSUNNY 79 70 74 NW7 30.02F GOLDSBORO MOSUNNY 82 72 71 CALM 30.00F GREENVILLE MOSUNNY 81 64 57 N6 30.03S HAVELOCK PTSUNNY 83 70 64 E3 30.01F KENANSVILLE PTSUNNY 77 68 72 N3 30.03F KINSTON MOSUNNY 81 66 61 CALM 30.02F NEW BERN MOSUNNY 83 69 62 NW5 30.02F RICHLANDS MOSUNNY 81 68 65 NW5 30.01F ROANOKE RAPIDS NOT AVBL ROCKY MOUNT SUNNY 82 63 52 CALM 30.01F WASHINGTON MOSUNNY 79 67 66 CALM 30.01F WHITEVILLE PTSUNNY 80 70 71 CALM 30.00F $$ AMZ130-135-150-152-154-156-158-170-250-252-270-ANZ085-086-088-633-658-670-161800- MARINE OBSERVATIONS STATION/POSITION TIME TEMP WIND PRES WAVE SWELL AIR SEA DIR/SP/G HT/PER HT/PER (UTC) (F) (DEG/KT/KT) (MB) (FT/S) (FT/S) CHESAPEAKE LIGHT 1600 74 290/ 9/ 10 1016.8 BUOY 44014 1700 74 79 280/ 12/ 14 1014.9 2/12 2/12 DUCK 1600 75 250/ 7/ 11 1015.7 2E DUCK 1700 N/A 2/14 2/14 OREGON INLET 1600 76 230/ 4/ 5 1016.5 BUOY 44095 1600 77 N/A 2/13 2/13 20E OREGON INLET NOT AVBL HATTERAS CG 1600 77 290/ 5/ 6 1017.2 DIAMOND BUOY 1700 76 300/ 6/ 8 1016.1 2/ 7 2/ 7 CAPE LOOKOUT 1600 79 CALM / 2 1016.9 BEAUFORT LAB 1600 77 170/ 3/ 4 1016.7 30 SE NEW RIVER 1700 76 81 20/ 8/ 10 1016.7 2/12 2/12 5 SE WRIGHTSVILL 1600 74 81 40/ 10/ 12 N/A BUOY 41002 1611 79 83 260/ 10/ 12 1017.0 3/ 7 3/ 7 BUOY 41004 1700 80 84 340/ 6/ 8 1015.9 2/ 8 2/ 8 $$

USA.gov is the U.S. government's official web portal to all federal, state and local government web resources and services.